�������l�o���
Date,Time,MP-1(��Sv/h),MP-2(��Sv/h),MP-3(��Sv/h),MP-4(��Sv/h),MP-5(��Sv/h),MP-6(��Sv/h),MP-7(��Sv/h),MP-8(��Sv/h),����,����(m/s),���J
2023/08/25,00:00,0.550,0.834,0.507,1.026,0.753,0.328,0.582,0.540,��,4.7,��
2023/08/25,00:10,0.552,0.830,0.508,1.025,0.753,0.328,0.585,0.540,��,4.7,��
2023/08/25,00:20,0.550,0.833,0.507,1.026,0.753,0.327,0.583,0.539,��,5.0,��
2023/08/25,00:30,0.548,0.832,0.507,1.026,0.751,0.328,0.586,0.540,��,5.5,��
2023/08/25,00:40,0.550,0.831,0.508,1.025,0.753,0.328,0.584,0.539,��,5.8,��
2023/08/25,00:50,0.550,0.832,0.509,1.026,0.752,0.328,0.583,0.540,��,6.1,��
2023/08/25,01:00,0.550,0.833,0.506,1.027,0.751,0.329,0.584,0.539,��,5.8,��
2023/08/25,01:10,0.550,0.833,0.508,1.026,0.752,0.328,0.584,0.540,��,5.5,��
2023/08/25,01:20,0.551,0.834,0.508,1.026,0.751,0.327,0.584,0.540,��,6.0,��
2023/08/25,01:30,0.550,0.832,0.509,1.025,0.752,0.328,0.585,0.540,��,6.3,��
2023/08/25,01:40,0.549,0.831,0.507,1.027,0.753,0.328,0.585,0.540,��,6.0,��
2023/08/25,01:50,0.549,0.832,0.509,1.025,0.751,0.328,0.583,0.540,��,5.8,��
2023/08/25,02:00,0.552,0.833,0.509,1.025,0.751,0.328,0.584,0.541,��쐼,4.8,��
2023/08/25,02:10,0.550,0.832,0.509,1.027,0.752,0.327,0.584,0.540,��쐼,4.2,��
2023/08/25,02:20,0.549,0.833,0.509,1.026,0.751,0.328,0.582,0.540,�쐼,3.8,��
2023/08/25,02:30,0.550,0.832,0.508,1.026,0.751,0.328,0.584,0.540,�쐼,3.8,��
2023/08/25,02:40,0.548,0.832,0.508,1.025,0.753,0.328,0.584,0.540,��쐼,5.9,��
2023/08/25,02:50,0.549,0.831,0.509,1.028,0.751,0.327,0.585,0.540,��쐼,3.7,��
2023/08/25,03:00,0.550,0.831,0.508,1.025,0.752,0.328,0.584,0.540,��쐼,4.1,��
2023/08/25,03:10,0.549,0.832,0.510,1.024,0.752,0.330,0.584,0.540,��쐼,5.7,��
2023/08/25,03:20,0.551,0.832,0.507,1.028,0.752,0.328,0.584,0.539,��쐼,5.7,��
2023/08/25,03:30,0.550,0.832,0.508,1.025,0.753,0.327,0.585,0.539,��쐼,6.4,��
2023/08/25,03:40,0.551,0.830,0.509,1.025,0.752,0.329,0.582,0.539,��쐼,6.0,��
2023/08/25,03:50,0.551,0.831,0.509,1.025,0.751,0.328,0.583,0.539,��쐼,6.1,��
2023/08/25,04:00,0.551,0.833,0.509,1.026,0.750,0.327,0.583,0.538,��,5.3,��
2023/08/25,04:10,0.550,0.832,0.509,1.027,0.750,0.329,0.582,0.541,��,4.6,��
2023/08/25,04:20,0.549,0.832,0.509,1.027,0.750,0.328,0.583,0.538,��,4.2,��
2023/08/25,04:30,0.550,0.831,0.510,1.024,0.751,0.328,0.585,0.540,��,4.3,��
2023/08/25,04:40,0.551,0.833,0.509,1.027,0.750,0.327,0.583,0.539,��,4.1,��
2023/08/25,04:50,0.550,0.831,0.508,1.026,0.751,0.328,0.583,0.539,��,4.3,��
2023/08/25,05:00,0.550,0.832,0.509,1.026,0.752,0.327,0.583,0.540,��,4.6,��
2023/08/25,05:10,0.550,0.832,0.510,1.028,0.753,0.328,0.583,0.540,��,4.3,��
2023/08/25,05:20,0.550,0.831,0.511,1.026,0.753,0.328,0.584,0.540,��,4.4,��
2023/08/25,05:30,0.549,0.833,0.508,1.025,0.753,0.327,0.583,0.540,��,4.6,��
2023/08/25,05:40,0.549,0.831,0.509,1.026,0.751,0.327,0.583,0.539,��,4.5,��
2023/08/25,05:50,0.549,0.835,0.509,1.027,0.752,0.328,0.584,0.540,��,4.6,��
2023/08/25,06:00,0.550,0.833,0.510,1.027,0.752,0.327,0.585,0.539,��,4.1,��
2023/08/25,06:10,0.550,0.833,0.509,1.026,0.751,0.328,0.583,0.540,��,3.0,��
2023/08/25,06:20,0.550,0.834,0.510,1.028,0.753,0.329,0.585,0.539,��,3.6,��
2023/08/25,06:30,0.550,0.831,0.509,1.026,0.753,0.329,0.584,0.540,��,2.0,��
2023/08/25,06:40,0.551,0.831,0.511,1.025,0.752,0.327,0.583,0.540,��쓌,0.9,��
2023/08/25,06:50,0.550,0.831,0.509,1.026,0.750,0.328,0.583,0.540,��,2.0,��
2023/08/25,07:00,0.552,0.830,0.508,1.027,0.752,0.328,0.584,0.539,��,2.9,��
2023/08/25,07:10,0.549,0.830,0.510,1.026,0.749,0.329,0.584,0.539,��쐼,2.3,��
2023/08/25,07:20,0.550,0.829,0.510,1.026,0.751,0.328,0.584,0.540,��,3.6,��
2023/08/25,07:30,0.551,0.830,0.510,1.026,0.749,0.329,0.586,0.541,��,4.5,��
2023/08/25,07:40,0.551,0.830,0.509,1.028,0.751,0.328,0.585,0.540,��쓌,6.1,��
2023/08/25,07:50,0.550,0.830,0.508,1.029,0.750,0.328,0.584,0.540,��쓌,6.6,��
2023/08/25,08:00,0.549,0.829,0.508,1.026,0.751,0.327,0.583,0.539,��쓌,5.9,��
2023/08/25,08:10,0.551,0.831,0.508,1.025,0.751,0.327,0.585,0.540,��쓌,7.8,��
2023/08/25,08:20,0.552,0.831,0.510,1.027,0.749,0.326,0.584,0.540,��쓌,8.4,��
2023/08/25,08:30,0.551,0.830,0.508,1.026,0.752,0.327,0.586,0.541,��쓌,9.3,��
2023/08/25,08:40,0.549,0.833,0.507,1.026,0.752,0.328,0.586,0.542,��쓌,8.3,��
2023/08/25,08:50,0.550,0.832,0.508,1.028,0.752,0.329,0.587,0.540,��쓌,8.8,��
2023/08/25,09:00,0.549,0.830,0.509,1.026,0.751,0.326,0.585,0.537,��쓌,9.2,��
2023/08/25,09:10,0.550,0.830,0.508,1.027,0.751,0.327,0.585,0.538,��,9.6,��
2023/08/25,09:20,0.550,0.829,0.508,1.027,0.752,0.327,0.585,0.538,��,7.6,��
2023/08/25,09:30,0.550,0.831,0.508,1.028,0.751,0.326,0.583,0.539,��쓌,8.2,��
2023/08/25,09:40,0.550,0.833,0.508,1.027,0.752,0.326,0.585,0.538,��쓌,10.2,��
2023/08/25,09:50,0.552,0.830,0.509,1.028,0.752,0.328,0.583,0.539,��쓌,10.9,��
2023/08/25,10:00,0.551,0.832,0.508,1.027,0.752,0.328,0.583,0.538,��쓌,11.1,��
2023/08/25,10:10,0.542,0.833,0.508,1.028,0.754,0.327,0.585,0.539,��쓌,11.6,��
2023/08/25,10:20,0.543,0.834,0.508,1.028,0.753,0.326,0.585,0.538,��쓌,9.1,��
2023/08/25,10:30,0.551,0.830,0.507,1.030,0.754,0.327,0.583,0.538,��쓌,10.3,��
2023/08/25,10:40,0.551,0.829,0.508,1.030,0.754,0.328,0.585,0.541,��쓌,12.2,��
2023/08/25,10:50,0.550,0.832,0.509,1.028,0.755,0.326,0.584,0.539,��쓌,11.3,��
2023/08/25,11:00,0.551,0.834,0.508,1.028,0.755,0.325,0.584,0.540,��쓌,11.9,��
2023/08/25,11:10,0.552,0.832,0.510,1.030,0.753,0.328,0.586,0.540,��쓌,11.1,��
2023/08/25,11:20,0.552,0.832,0.509,1.030,0.757,0.327,0.585,0.539,��,12.4,��
2023/08/25,11:30,0.550,0.831,0.511,1.029,0.755,0.327,0.583,0.540,��쓌,11.4,��
2023/08/25,11:40,0.552,0.832,0.510,1.031,0.754,0.328,0.586,0.540,��쓌,12.4,��
2023/08/25,11:50,0.551,0.834,0.509,1.030,0.757,0.328,0.584,0.541,��쓌,11.6,��
2023/08/25,12:00,0.551,0.834,0.510,1.031,0.757,0.327,0.585,0.540,��쓌,11.3,��
2023/08/25,12:10,0.552,0.834,0.509,1.031,0.757,0.328,0.584,0.539,��쓌,13.0,��
2023/08/25,12:20,0.550,0.833,0.510,1.029,0.757,0.328,0.585,0.541,��쓌,13.0,��
2023/08/25,12:30,0.550,0.836,0.509,1.031,0.758,0.328,0.584,0.540,��,12.4,��
2023/08/25,12:40,0.552,0.835,0.508,1.030,0.758,0.327,0.586,0.540,��쓌,13.3,��
2023/08/25,12:50,0.553,0.834,0.508,1.029,0.758,0.327,0.587,0.540,��쓌,12.4,��
2023/08/25,13:00,0.551,0.835,0.508,1.029,0.757,0.326,0.587,0.540,��쓌,14.6,��
2023/08/25,13:10,0.551,0.835,0.510,1.031,0.756,0.328,0.586,0.541,��쓌,13.5,��
2023/08/25,13:20,0.551,0.834,0.508,1.031,0.757,0.327,0.586,0.541,��쓌,12.2,��
2023/08/25,13:30,0.553,0.834,0.508,1.031,0.758,0.327,0.587,0.541,��쓌,11.8,��
2023/08/25,13:40,0.551,0.834,0.509,1.030,0.754,0.329,0.586,0.542,��쓌,13.3,��
2023/08/25,13:50,0.553,0.836,0.508,1.032,0.757,0.327,0.588,0.542,��쓌,13.6,��
2023/08/25,14:00,0.552,0.834,0.509,1.032,0.756,0.327,0.585,0.543,��쓌,15.7,��
2023/08/25,14:10,0.552,0.833,0.508,1.032,0.756,0.327,0.587,0.541,��쓌,13.8,��
2023/08/25,14:20,0.551,0.834,0.508,1.032,0.756,0.329,0.586,0.541,��쓌,12.2,��
2023/08/25,14:30,0.551,0.834,0.509,1.031,0.758,0.329,0.585,0.541,��쓌,15.5,��
2023/08/25,14:40,0.552,0.835,0.508,1.031,0.757,0.329,0.585,0.542,��쓌,15.2,��
2023/08/25,14:50,0.551,0.834,0.508,1.031,0.757,0.328,0.585,0.539,��쓌,14.9,��
2023/08/25,15:00,0.552,0.833,0.508,1.031,0.755,0.328,0.588,0.542,��쓌,13.3,��
2023/08/25,15:10,0.551,0.835,0.506,1.031,0.757,0.329,0.587,0.541,��쓌,11.9,��
2023/08/25,15:20,0.552,0.835,0.508,1.030,0.755,0.326,0.587,0.539,��,9.7,��
2023/08/25,15:30,0.552,0.837,0.509,1.029,0.757,0.329,0.586,0.539,��쓌,10.0,��
2023/08/25,15:40,0.552,0.836,0.507,1.030,0.757,0.329,0.586,0.540,��,12.4,��
2023/08/25,15:50,0.552,0.834,0.508,1.029,0.757,0.329,0.586,0.540,��쓌,11.3,��
2023/08/25,16:00,0.551,0.834,0.508,1.029,0.756,0.329,0.584,0.538,��,10.8,��
2023/08/25,16:10,0.553,0.833,0.508,1.031,0.756,0.328,0.584,0.540,��쓌,13.0,��
2023/08/25,16:20,0.552,0.834,0.508,1.031,0.755,0.329,0.586,0.539,��쓌,11.9,��
2023/08/25,16:30,0.551,0.835,0.508,1.031,0.756,0.328,0.585,0.540,��쓌,11.6,��
2023/08/25,16:40,0.552,0.834,0.507,1.034,0.755,0.328,0.585,0.540,��,10.7,��
2023/08/25,16:50,0.551,0.834,0.509,1.034,0.757,0.328,0.586,0.540,��쓌,11.0,��
2023/08/25,17:00,0.553,0.837,0.508,1.032,0.756,0.328,0.586,0.541,��쓌,11.6,��
2023/08/25,17:10,0.553,0.835,0.508,1.032,0.755,0.327,0.585,0.540,��,9.6,��
2023/08/25,17:20,0.552,0.835,0.508,1.032,0.755,0.330,0.585,0.541,��,9.7,��
2023/08/25,17:30,0.551,0.835,0.507,1.032,0.754,0.327,0.584,0.541,��,10.0,��
2023/08/25,17:40,0.551,0.834,0.507,1.032,0.755,0.329,0.585,0.541,��,10.3,��
2023/08/25,17:50,0.553,0.834,0.508,1.032,0.755,0.327,0.583,0.540,��,9.4,��
2023/08/25,18:00,0.553,0.834,0.508,1.032,0.756,0.329,0.584,0.540,��,9.8,��
2023/08/25,18:10,0.553,0.835,0.507,1.032,0.756,0.328,0.584,0.542,��,10.0,��
2023/08/25,18:20,0.553,0.834,0.507,1.031,0.754,0.328,0.586,0.542,��,9.5,��
2023/08/25,18:30,0.553,0.834,0.508,1.031,0.756,0.329,0.586,0.541,��,8.6,��
2023/08/25,18:40,0.552,0.835,0.508,1.032,0.756,0.329,0.586,0.541,��,8.6,��
2023/08/25,18:50,0.553,0.836,0.510,1.033,0.754,0.327,0.584,0.540,��,9.6,��
2023/08/25,19:00,0.554,0.832,0.509,1.030,0.756,0.329,0.584,0.541,��,9.4,��
2023/08/25,19:10,0.554,0.837,0.507,1.031,0.756,0.329,0.586,0.540,��,8.0,��
2023/08/25,19:20,0.552,0.834,0.508,1.032,0.756,0.328,0.584,0.541,��,8.6,��
2023/08/25,19:30,0.555,0.835,0.508,1.031,0.755,0.329,0.584,0.540,��,8.8,��
2023/08/25,19:40,0.552,0.835,0.508,1.029,0.757,0.328,0.585,0.541,��,8.8,��
2023/08/25,19:50,0.553,0.837,0.508,1.031,0.757,0.328,0.586,0.540,��,8.9,��
2023/08/25,20:00,0.552,0.837,0.508,1.032,0.755,0.329,0.584,0.541,��,8.6,��
2023/08/25,20:10,0.552,0.836,0.509,1.030,0.754,0.329,0.584,0.541,��,9.2,��
2023/08/25,20:20,0.553,0.836,0.510,1.031,0.755,0.330,0.586,0.541,��,8.1,��
2023/08/25,20:30,0.553,0.836,0.509,1.031,0.756,0.328,0.585,0.541,��,9.3,��
2023/08/25,20:40,0.552,0.834,0.509,1.031,0.755,0.329,0.584,0.541,��,8.6,��
2023/08/25,20:50,0.554,0.834,0.508,1.032,0.757,0.330,0.585,0.541,��,8.5,��
2023/08/25,21:00,0.551,0.837,0.510,1.030,0.757,0.329,0.585,0.540,��,8.3,��
2023/08/25,21:10,0.553,0.836,0.509,1.030,0.757,0.328,0.587,0.541,��,8.9,��
2023/08/25,21:20,0.552,0.837,0.509,1.033,0.757,0.331,0.585,0.540,��,7.6,��
2023/08/25,21:30,0.553,0.834,0.509,1.029,0.755,0.329,0.586,0.542,��,8.1,��
2023/08/25,21:40,0.554,0.836,0.510,1.032,0.755,0.328,0.586,0.542,��,7.4,��
2023/08/25,21:50,0.551,0.837,0.509,1.031,0.757,0.329,0.587,0.543,��,7.7,��
2023/08/25,22:00,0.555,0.834,0.509,1.030,0.755,0.328,0.587,0.541,��,7.3,��
2023/08/25,22:10,0.553,0.835,0.509,1.032,0.756,0.330,0.587,0.540,��,6.4,��
2023/08/25,22:20,0.552,0.838,0.508,1.033,0.757,0.330,0.585,0.540,��,6.7,��
2023/08/25,22:30,0.553,0.836,0.508,1.031,0.757,0.329,0.586,0.541,��,6.8,��
2023/08/25,22:40,0.552,0.838,0.508,1.032,0.756,0.329,0.586,0.542,��,6.9,��
2023/08/25,22:50,0.553,0.838,0.507,1.032,0.757,0.329,0.585,0.541,��,6.3,��
2023/08/25,23:00,0.552,0.835,0.508,1.031,0.754,0.329,0.586,0.540,��,6.2,��
2023/08/25,23:10,0.552,0.836,0.508,1.031,0.756,0.328,0.587,0.542,��,6.8,��
2023/08/25,23:20,0.554,0.837,0.509,1.031,0.755,0.328,0.585,0.540,��,6.5,��
2023/08/25,23:30,0.552,0.835,0.508,1.030,0.756,0.329,0.585,0.541,��,6.9,��
2023/08/25,23:40,0.554,0.833,0.509,1.031,0.756,0.329,0.585,0.541,��,6.7,��
2023/08/25,23:50,0.555,0.835,0.510,1.033,0.757,0.327,0.585,0.540,��,6.8,��
